SCP
0 0 0 0 0 0 0 0 0 0 0 0 1 1 1 1 1 1 1 1 1 1 2 2 2 3 3 3 3 3 3 3 3 4 4 4 4 3 3 2 2 2 1 1 1 1 1 1 1
0 0 0 0 0 0 0 0 0 0 0 1 1 1 1 1 1 1 1 1 1 1 2 2 2 3 3 3 3 3 3 3 3 4 4 4 4 3 3 2 2 2 1 1 1 1 1 1 1
0 0 0 0 0 0 0 0 0 0 0 1 1 1 1 1 1 1 1 1 2 2 2 2 2 3 4 4 3 3 3 4 3 3 4 4 4 3 3 2 2 2 2 1 1 1 1 1 1
0 0 0 0 0 0 0 0 1 0 0 0 1 1 1 1 1 1 2 2 2 2 2 2 3 3 4 4 3 3 3 4 4 3 4 4 4 4 3 3 3 3 2 2 1 1 1 1 1
0 0 0 0 0 0 1 1 1 0 0 1 1 1 1 1 1 2 2 3 3 3 3 3 4 4 4 4 3 3 3 3 3 4 4 4 4 4 4 3 3 3 3 2 2 2 1 1 1
0 0 0 0 0 1 1 1 1 1 0 1 1 1 1 1 2 2 3 4 4 3 3 4 5 5 4 4 3 3 3 3 3 4 4 4 4 4 4 4 3 3 3 3 3 2 2 2 2
0 0 0 0 1 1 1 1 1 1 1 1 1 1 1 1 2 4 4 5 4 4 4 4 4 4 4 3 3 3 3 3 3 3 4 4 4 4 4 4 4 4 3 3 3 2 2 2 2
0 0 0 0 0 0 0 1 1 1 1 1 1 1 1 2 4 6 6 6 6 5 5 4 4 3 3 3 3 3 3 3 3 3 3 3 4 4 4 4 4 4 3 3 3 2 2 2 2
0 0 0 0 0 0 0 1 1 1 1 1 1 1 2 4 6 7 8 8 8 7 6 5 4 3 2 2 2 2 2 2 2 2 2 2 3 3 4 4 4 4 3 3 3 3 3 2 2
0 0 0 0 0 0 0 1 1 1 1 1 1 1 2 5 6 7 8 9 9 8 7 4 3 3 3 3 3 3 2 3 2 2 2 2 3 3 3 3 4 4 3 3 3 3 3 2 2
0 0 0 0 1 1 1 1 1 1 1 1 1 1 2 3 5 6 7 8 8 7 5 3 2 3 4 4 4 3 3 3 3 3 2 2 3 3 4 4 3 3 3 3 3 3 2 2 2
0 0 1 1 1 1 1 1 1 1 1 1 1 1 2 2 3 4 4 5 4 3 2 2 2 3 4 4 4 4 4 4 4 3 3 2 3 3 4 4 3 3 3 3 2 2 2 1 1
0 1 1 1 1 2 2 2 1 1 1 1 1 2 2 2 2 2 2 2 2 1 1 2 3 4 4 4 5 5 5 5 5 4 3 3 3 3 3 3 3 3 3 2 2 2 2 1 1
1 1 1 2 2 2 2 2 1 1 1 1 1 2 2 2 1 1 1 1 1 1 2 3 4 5 5 5 5 5 5 5 4 4 3 3 3 3 2 3 3 3 2 2 2 2 2 1 1
1 1 1 2 2 2 2 1 1 1 1 1 1 1 2 2 1 1 1 1 1 1 2 4 5 5 4 4 4 4 4 4 4 3 3 3 3 3 3 2 2 2 2 2 2 2 2 2 2
1 1 1 1 1 1 1 1 1 1 1 1 1 1 1 1 1 1 1 1 1 1 1 3 4 3 3 2 2 2 2 3 3 3 3 3 3 4 3 3 2 2 2 2 2 2 2 2 2
0 0 1 1 1 1 1 1 1 2 2 2 1 1 1 1 1 1 1 1 1 1 1 1 2 2 2 1 1 1 1 2 3 4 4 3 3 4 4 3 3 2 2 2 3 2 2 1 1
0 0 0 0 1 1 1 2 2 2 3 2 1 1 1 1 1 1 1 1 1 1 1 1 1 1 1 1 1 1 1 1 2 3 4 4 4 4 4 4 3 3 2 2 3 2 1 1 1
0 0 0 0 0 1 1 2 2 3 3 2 1 1 1 1 1 2 2 1 1 1 1 1 1 1 1 1 1 1 1 1 1 2 3 4 5 5 5 5 4 4 3 2 2 2 1 1 1
0 0 0 0 0 1 1 2 2 2 2 2 1 1 1 1 1 1 1 1 1 1 1 1 1 1 1 1 1 1 1 1 1 1 2 3 4 5 5 6 6 5 4 3 2 2 2 1 1
0 0 0 0 0 1 1 1 1 1 2 1 1 1 1 1 1 1 1 1 1 1 1 1 2 2 1 1 1 2 2 1 1 1 2 2 3 4 5 6 6 6 5 3 3 2 2 2 1
0 0 0 0 0 0 0 0 1 1 1 1 1 1 1 1 1 1 1 1 1 1 1 1 1 1 1 1 1 2 2 2 2 2 2 2 2 3 4 5 6 7 6 4 3 3 2 2 2
0 0 0 0 0 0 0 0 0 0 1 1 2 1 1 0 0 1 1 1 1 1 1 1 1 1 1 1 1 1 2 1 1 2 2 2 2 2 3 4 6 6 6 5 4 3 3 3 2
1 1 0 0 0 0 0 0 0 0 0 1 2 2 1 0 0 0 0 1 1 2 2 1 1 1 1 1 1 1 1 1 1 1 1 1 1 1 2 3 5 6 6 6 5 4 4 3 3
1 1 0 0 0 0 0 0 0 0 0 1 2 2 1 0 0 0 0 1 2 2 2 1 1 1 1 1 1 1 1 1 1 1 1 1 1 1 1 2 3 5 5 6 6 5 4 3 3
0 0 0 0 0 0 0 0 0 0 0 1 2 2 1 0 0 0 0 1 2 2 1 1 1 1 1 1 1 1 1 1 1 1 1 1 1 1 1 2 3 3 4 5 6 5 4 4 3
0 0 0 0 0 0 0 0 0 0 1 1 2 2 1 0 0 0 1 1 1 1 1 1 1 1 1 1 1 0 0 0 0 1 0 0 0 1 1 1 2 3 3 4 5 5 4 4 3
0 0 0 0 0 0 0 0 0 0 1 1 2 2 1 0 0 1 1 1 1 1 1 1 1 1 1 1 1 0 0 0 0 0 0 0 0 1 1 1 2 2 3 3 3 4 4 3 3
0 0 0 0 0 0 0 0 0 0 1 1 1 1 0 0 1 1 1 1 1 0 0 0 0 1 1 0 0 0 0 0 0 0 0 0 0 0 1 1 1 2 2 2 2 2 3 3 3
0 0 0 0 0 0 0 0 0 0 0 1 1 1 0 0 1 1 1 1 0 0 0 0 0 0 0 0 0 0 0 0 0 0 0 0 0 0 1 1 1 1 2 2 2 2 2 2 2
Wind_Speed
1 2 2 2 5 5 1 3 2 2 2 2 2 3 4 3 2 1 0 5 6 7 6 7 8 9 10 11 11 11 11 11 12 11 11 11 11 11 11 11 10 10 10 10 10 10 10 10 10
2 2 2 4 5 2 3 3 1 1 1 1 2 3 3 2 2 3 2 3 6 6 5 6 8 9 10 10 11 11 11 11 11 11 11 11 11 10 10 10 10 10 9 9 9 9 9 9 8
1 2 4 5 4 3 3 2 2 0 0 1 2 3 2 1 2 3 3 6 6 5 4 5 9 9 9 10 10 10 11 11 11 11 11 11 10 9 9 9 10 9 8 8 9 8 8 8 8
2 4 5 5 1 3 3 3 1 0 2 2 3 2 2 2 0 3 6 7 6 4 4 5 8 8 8 9 8 9 10 10 10 10 10 10 10 9 9 9 9 9 8 8 8 8 7 7 7
4 4 5 3 2 3 3 3 1 1 0 2 3 2 1 3 4 7 7 7 7 5 3 4 7 7 7 8 8 8 8 9 9 9 9 9 9 8 8 8 8 8 8 8 8 7 7 6 6
5 5 4 0 3 4 3 1 1 1 1 1 2 2 0 2 3 5 6 6 5 5 4 4 7 7 7 7 7 8 8 8 8 8 8 8 8 7 7 7 7 7 7 7 7 7 6 6 6
4 4 2 1 2 3 2 1 2 1 1 1 3 4 1 1 2 4 4 5 4 4 3 2 3 4 6 6 7 7 7 7 7 7 7 7 7 7 7 7 7 6 6 6 6 6 6 5 6
4 4 2 1 2 3 1 1 1 2 1 2 3 4 3 3 4 5 5 4 3 3 3 2 2 2 2 3 6 6 6 6 6 6 7 7 7 6 6 6 6 6 5 5 6 5 5 4 5
3 5 1 4 4 4 1 1 1 1 3 2 1 2 3 8 7 6 4 3 2 2 2 2 2 2 2 3 4 5 5 5 5 5 6 5 2 2 3 4 5 6 6 5 5 5 5 4 4
4 3 5 5 4 3 2 1 1 1 1 1 2 3 6 9 7 7 6 5 3 3 3 3 3 2 2 2 2 1 2 2 1 1 2 2 2 1 2 2 4 4 4 4 4 4 3 2 1
4 5 4 3 4 3 1 1 1 4 2 4 5 6 8 7 6 6 6 4 3 2 2 2 2 2 2 2 2 1 1 1 1 1 2 1 1 1 0 0 1 1 1 0 1 1 1 1 1
3 4 3 3 1 1 2 2 1 3 4 2 5 8 8 8 6 6 5 4 3 2 2 2 2 2 2 2 1 1 1 1 1 1 2 2 1 1 1 1 0 0 0 0 0 1 1 1 2
3 3 2 2 0 1 2 2 2 1 1 4 6 7 7 7 4 3 3 3 2 2 2 2 2 2 2 1 1 1 1 1 1 1 1 2 2 2 1 1 1 1 1 1 1 1 1 1 1
2 2 2 2 0 1 3 1 2 2 2 5 6 6 5 6 5 3 3 3 2 2 2 2 2 2 2 2 1 1 1 1 1 1 1 2 2 2 2 1 1 1 1 1 1 1 1 1 1
1 2 4 2 1 0 3 2 2 2 4 5 5 5 5 5 5 5 5 4 4 2 2 2 2 2 2 1 1 1 0 1 1 0 0 1 2 2 2 1 1 1 1 1 1 1 1 1 1
2 3 2 4 0 0 3 3 4 3 5 4 4 5 4 4 4 4 4 4 3 3 2 2 2 3 2 2 1 1 0 1 0 0 0 1 1 2 2 2 1 1 1 1 1 1 1 1 1
3 1 2 5 1 1 2 4 4 3 5 4 4 4 4 3 2 2 3 3 3 3 3 2 2 2 2 2 1 1 1 1 0 0 1 1 1 1 2 1 1 1 1 1 1 1 1 1 1
3 2 2 4 3 1 1 5 3 2 4 4 4 4 4 4 3 3 2 2 2 2 2 2 2 2 2 1 1 1 1 1 0 0 1 1 1 1 1 1 1 1 1 0 1 1 0 1 1
3 2 3 5 3 1 4 5 4 2 3 4 4 4 4 4 2 2 2 2 2 1 2 2 2 1 2 1 1 1 0 0 0 1 1 1 1 2 2 1 1 1 1 1 1 1 1 1 0
2 1 4 5 2 2 2 4 3 3 4 5 5 5 5 4 2 2 2 2 2 2 2 2 2 2 2 2 1 1 1 1 1 1 1 1 2 2 2 2 1 1 1 1 1 1 1 1 0
3 5 5 4 3 2 1 4 3 2 1 1 3 4 5 6 5 3 2 2 1 2 2 1 1 1 1 1 1 1 1 1 1 1 1 1 1 1 2 2 1 1 1 1 2 2 2 2 1
5 6 5 3 1 2 1 3 5 2 2 2 3 4 5 4 4 3 3 2 2 2 1 1 1 1 1 1 2 2 1 1 1 1 1 1 1 1 1 1 1 1 1 2 2 2 2 3 2
5 1 1 1 2 1 2 1 7 1 3 5 5 5 4 4 4 4 3 3 2 1 1 1 0 0 0 1 2 2 1 1 0 0 0 1 1 1 2 1 2 2 2 2 2 2 3 3 3
3 4 5 5 4 1 2 2 6 4 5 4 4 4 4 3 3 3 2 2 1 1 0 1 1 0 0 0 1 2 2 2 1 0 1 1 1 1 1 1 2 2 2 3 3 3 3 3 3
3 5 4 4 3 4 2 2 8 6 5 5 6 5 4 3 3 3 2 2 2 1 0 0 1 1 1 1 1 1 2 2 2 2 2 1 1 1 2 1 1 2 2 2 2 2 2 3 3
3 7 6 4 4 4 2 4 7 4 3 1 3 3 3 3 3 3 3 3 2 2 1 1 1 1 1 1 1 1 1 1 1 2 2 2 1 2 1 1 1 1 1 1 1 1 2 2 3
5 3 5 6 2 1 4 5 6 1 3 2 3 3 3 3 2 2 2 2 1 1 2 2 2 1 2 1 1 1 1 1 1 1 1 1 1 1 1 0 1 1 1 1 1 1 1 1 2
4 7 5 5 4 2 4 4 4 4 2 1 1 2 1 1 0 1 1 1 1 2 1 1 1 2 2 2 1 1 1 1 0 0 0 1 1 0 0 1 1 1 1 1 1 1 1 1 2
3 3 5 4 4 5 3 6 4 4 3 4 3 2 2 2 2 2 1 1 1 1 1 1 0 1 1 1 0 0 0 0 0 0 1 1 0 0 0 0 0 1 1 1 1 1 1 2 2
4 5 7 5 3 4 3 7 3 1 2 3 3 2 1 1 1 1 1 1 1 1 0 0 0 1 1 0 1 1 1 1 1 1 0 0 0 0 0 0 0 1 1 1 1 1 1 2 2
Wind_Direction
184 110 103 74 56 51 357 279 261 322 345 357 23 77 105 112 148 174 103 135 134 142 150 152 148 145 141 137 134 131 129 129 128 128 130 134 136 138 142 143 145 147 148 150 148 147 146 146 150
128 122 66 61 79 60 288 269 264 239 209 51 45 61 66 70 68 101 121 141 135 140 144 152 152 148 143 140 138 137 137 136 136 136 135 136 139 142 146 149 150 151 153 154 153 152 151 151 153
144 81 81 72 96 169 240 264 236 237 48 50 61 48 54 72 99 141 152 138 125 130 138 155 155 154 149 143 142 143 141 140 142 141 141 140 141 144 149 153 155 156 158 160 160 159 157 160 161
95 50 56 70 138 227 229 260 259 29 354 29 101 72 53 15 135 142 132 132 128 132 141 158 155 153 150 144 144 145 144 144 145 145 146 145 146 150 152 155 159 161 163 165 167 166 166 169 173
63 74 59 36 278 259 248 259 220 128 35 31 89 111 61 9 71 112 130 134 137 140 143 154 151 149 151 153 153 149 147 148 149 150 151 151 153 156 159 160 161 164 168 171 171 166 169 172 175
59 66 77 303 284 283 274 236 143 102 96 86 100 123 130 38 87 122 130 134 143 144 142 148 154 153 157 158 155 152 150 151 152 152 152 153 155 157 161 165 165 166 171 179 176 175 179 183 187
100 95 134 204 278 293 271 153 140 150 124 146 136 126 196 79 114 117 113 118 126 134 139 143 145 154 158 156 155 153 151 152 156 157 157 156 157 160 167 172 172 173 177 181 182 183 187 193 196
123 102 101 232 241 267 266 66 132 135 137 99 114 140 200 183 130 107 101 105 120 126 136 132 133 149 158 163 164 163 161 160 163 166 166 166 169 170 175 177 179 183 192 195 194 193 193 196 199
99 79 189 217 211 247 240 110 347 65 94 66 70 162 167 135 128 113 108 100 133 149 146 146 157 163 174 174 177 171 171 171 168 172 173 165 163 177 185 186 188 194 200 205 206 203 203 204 208
99 135 225 219 206 220 233 178 176 100 87 81 52 67 115 133 139 139 150 163 174 185 183 170 172 176 182 185 151 139 155 144 143 147 158 151 146 182 185 196 202 204 208 214 217 217 213 206 205
154 191 235 255 228 213 211 237 142 139 215 210 184 158 143 141 148 157 167 172 179 181 156 161 172 164 175 166 152 143 143 139 145 154 160 151 143 158 184 160 234 238 216 211 238 228 209 197 197
185 237 227 262 256 184 182 163 136 182 222 196 162 152 151 154 165 171 175 174 165 153 166 166 172 167 169 150 149 149 157 155 163 173 159 156 155 167 176 182 191 170 190 171 171 218 226 222 211
220 266 270 255 280 153 130 155 161 222 347 101 121 131 149 158 165 172 163 150 146 158 172 171 160 161 147 133 153 148 167 170 173 169 166 161 167 186 186 199 187 183 189 181 181 218 216 241 237
237 268 299 316 279 141 134 154 119 243 109 114 132 145 153 160 161 154 156 156 160 166 165 154 158 161 143 149 156 157 155 152 157 177 184 180 177 172 170 177 183 207 209 196 194 200 210 232 228
330 342 342 346 352 165 106 24 228 206 128 133 153 155 150 158 158 170 180 175 173 168 161 157 158 133 125 123 112 103 139 153 161 164 159 167 167 164 163 168 187 212 197 185 171 217 223 235 229
33 36 337 301 342 37 115 256 259 161 138 158 168 159 159 168 173 174 170 176 170 163 163 173 148 119 109 99 93 95 87 99 93 124 157 192 178 165 160 170 203 201 176 171 174 200 212 245 243
33 32 277 301 284 105 139 245 270 163 153 179 180 171 171 163 168 186 177 176 179 173 164 163 144 134 129 118 114 112 95 75 32 319 197 190 177 165 155 164 197 173 165 188 209 188 190 229 252
227 229 259 278 288 90 221 249 268 194 181 196 191 179 178 179 203 198 187 178 170 157 154 164 164 146 125 112 102 80 61 46 34 259 226 169 169 168 151 158 173 156 152 196 189 199 207 222 242
181 202 263 270 265 203 239 255 269 225 203 203 199 188 190 199 204 174 168 162 139 142 157 181 170 161 133 132 145 135 168 232 245 233 209 192 181 177 163 172 162 165 177 217 203 180 224 252 224
174 232 268 287 290 189 246 275 269 223 211 202 195 190 191 189 164 160 152 138 150 180 192 195 185 181 178 180 177 170 168 180 208 232 241 209 197 199 183 175 183 183 175 214 200 176 181 250 177
223 206 229 243 320 22 46 318 300 291 261 164 187 187 186 187 181 179 174 160 162 201 205 187 197 199 196 175 117 82 58 51 30 338 291 255 216 195 186 184 189 191 188 216 222 193 190 214 227
252 236 212 217 130 297 63 282 290 274 279 235 216 200 197 188 176 177 182 187 202 216 199 187 201 212 223 166 151 152 159 192 225 235 260 293 255 217 208 194 188 208 210 223 237 216 210 207 227
219 239 152 149 137 33 2 196 284 308 259 247 227 211 201 188 174 178 188 195 198 187 160 179 156 220 245 174 171 160 189 229 239 289 294 301 298 259 231 208 200 215 224 232 235 226 217 212 218
139 63 53 52 73 7 252 186 276 244 231 231 222 214 195 179 167 166 163 145 133 101 109 133 132 293 304 182 172 172 190 205 196 264 277 298 309 303 271 221 212 218 225 231 232 223 218 218 217
97 92 33 1 9 257 268 208 254 259 241 213 208 205 190 174 165 164 172 173 164 141 185 171 150 216 246 191 202 195 193 187 205 213 222 244 280 288 281 267 242 235 231 229 220 211 219 218 216
178 143 158 196 225 276 314 246 262 280 287 203 163 157 149 163 179 183 190 193 184 185 193 186 186 224 231 214 244 228 195 191 218 213 205 217 237 257 260 245 260 262 249 239 212 212 225 218 220
143 169 162 132 144 278 282 287 302 354 23 62 114 124 155 181 192 194 196 191 186 193 205 201 200 224 233 230 229 233 229 210 223 230 195 211 238 251 245 239 310 306 287 251 211 231 239 218 228
139 142 105 118 150 245 283 274 260 263 248 220 173 176 190 173 208 230 204 186 201 204 191 118 196 230 233 223 222 216 229 233 233 193 223 219 247 293 352 3 345 331 318 272 212 241 237 216 242
111 102 109 117 149 160 246 268 241 222 205 195 207 195 179 185 208 220 215 202 179 127 120 121 222 272 259 240 228 159 217 157 112 219 238 212 278 338 8 327 340 323 309 303 270 264 240 232 259
156 162 146 150 205 175 182 265 307 196 180 176 186 177 156 159 187 177 143 120 101 96 64 80 217 225 239 170 80 57 37 61 56 18 298 148 30 342 76 25 347 315 317 318 291 281 272 244 263